Weather in Altieylul

Turkey     39°33′19″N   27°52′05″E
temp.,
°C
wind,
m/s
gust,
m/s
humid.,
%
clouds,
%
prec.,
mm/h
press.,
hPa
HPBL,
m
19 september, sun
sun1900:00+21sw22566 0.0 101321
03:00+20wsw11580 0.0 101311
06:00+19ene11640 0.0 101411
09:00+23se11480 0.0 1014258
12:00+31w49277 0.0 10132740
15:00+32w79234 0.0 10123198
18:00+30w911272 0.0 10121770
21:00+23sw33460 0.3 101328
20 september, mon
mon2000:00+21s11530 0.0 101311
03:00+20ssw22550 0.0 101314
06:00+20ssw22550 0.0 101314
09:00+26ssw23380 0.0 1013283
12:00+32sw56240 0.0 10121693
15:00+35wsw68160 0.0 10103307
18:00+31w79210 0.0 10101872
21:00+24wsw33380 0.0 101129
21 september, tue
tue2100:00+22ssw335041 0.0 101232
03:00+20sw33550 0.0 101225
06:00+19n11590 0.0 101311
09:00+21nne56590 0.0 1016542
12:00+25nne7657100 0.0 10161323
15:00+20nne8973100 0.1 1017948
18:00+18nne71077100 0.0 1018946
21:00+17nne61082100 0.0 1019764
22 september, wed
wed2200:00+16nne61086100 0.1 1019646
03:00+16nne71081100 0.1 1019727
06:00+15nne598159 0.0 1018659
09:00+16nne69691 0.0 1018659
12:00+21nne683934 0.0 10161484
15:00+23n78315 0.0 10141644
18:00+19nne78391 0.0 10141085
21:00+14nnw22615 0.0 101420
23 september, thu
thu2300:00+13nnw226799 0.0 101326
03:00+12nnw2273100 0.0 101314
06:00+11nne498899 0.2 1014460
09:00+12n587791 0.3 1015787
12:00+12nne697490 0.5 10161033
15:00+13nne8117386 1.1 10161063
18:00+14nne8116648 0.1 10161189
21:00+11nne6117714 0.2 1018584